This is the latest recevied weather packets stored in our database for station/object KF0ZH. If no packets are shown the sender has not sent any weather packets the latest 10 day(s).
| Time | Temp. | Humidity | Pressure | Rain* | Wind** | Luminosity | Snow |
|---|---|---|---|---|---|---|---|
| 1777837562 | 20° C | 39% | 1004.7 hPa | 0 mm | 1.34 m/s, 340° | - | - |
| 1777836969 | 20° C | 40% | 1004.7 hPa | 0 mm | 2.24 m/s, 327° | - | - |
| 1777836663 | 20° C | 39% | 1004.8 hPa | 0 mm | 1.79 m/s, 341° | - | - |
| 1777836363 | 20° C | 39% | 1004.8 hPa | 0 mm | 2.24 m/s, 315° | - | - |
| 1777836063 | 20° C | 40% | 1004.8 hPa | 0 mm | 2.68 m/s, 272° | - | - |
| 1777835463 | 20.56° C | 37% | 1004.8 hPa | 0 mm | 2.24 m/s, 270° | - | - |
| 1777835163 | 20.56° C | 39% | 1004.7 hPa | 0 mm | 4.02 m/s, 333° | - | - |
| 1777834863 | 20° C | 38% | 1004.8 hPa | 0 mm | 2.24 m/s, 303° | - | - |
| 1777834563 | 20° C | 40% | 1004.8 hPa | 0 mm | 0 m/s | - | - |
| 1777833963 | 20° C | 41% | 1004.9 hPa | 0 mm | 2.24 m/s, 300° | - | - |
| 1777833662 | 20° C | 43% | 1004.9 hPa | 0 mm | 4.02 m/s, 300° | - | - |
| 1777833363 | 20° C | 43% | 1004.9 hPa | 0 mm | 4.92 m/s, 316° | - | - |
| 1777833063 | 19.44° C | 44% | 1005 hPa | 0 mm | 3.13 m/s, 357° | - | - |
| 1777832463 | 19.44° C | 44% | 1005 hPa | 0 mm | 3.58 m/s, 315° | - | - |
| 1777832226 | 19.44° C | 47% | 1005.1 hPa | 0 mm | 2.68 m/s, 312° | - | - |
| 1777832162 | 19.44° C | 47% | 1005.1 hPa | 0 mm | 2.68 m/s, 312° | - | - |
| 1777831863 | 18.89° C | 44% | 1005.2 hPa | 0 mm | 3.13 m/s, 1° | - | - |
| 1777831563 | 18.89° C | 43% | 1005.2 hPa | 0 mm | 7.6 m/s, 336° | - | - |
| 1777830663 | 18.89° C | 45% | 1005.2 hPa | 0 mm | 3.13 m/s, 327° | - | - |
| 1777830363 | 18.89° C | 47% | 1005.2 hPa | 0 mm | 1.34 m/s, 270° | - | - |
| 1777830063 | 18.89° C | 46% | 1005.3 hPa | 0 mm | 4.02 m/s, 291° | - | - |
| 1777829465 | 18.89° C | 46% | 1005.3 hPa | 0 mm | 1.79 m/s, 298° | - | - |
| 1777829162 | 18.89° C | 48% | 1005.3 hPa | 0 mm | 2.24 m/s, 322° | - | - |
| 1777828863 | 18.89° C | 48% | 1005.4 hPa | 0 mm | 0 m/s | - | - |
| 1777828563 | 18.33° C | 49% | 1005.4 hPa | 0 mm | 1.79 m/s, 299° | - | - |
* Rain latest hour (hover to see other rain measurements)
** Current wind speed in m/s (hover to see current wind gust speed)